West Palm Beach, FL

10:25 PM EST on December 14, 2019 (GMT -0500)
Palm Beach International

Weather History for KPBI - October, 2019

Change the Weather History Date:

Wednesday, October 30, 2019

  Actual Average Record
Temperature  
Mean Temperature 81 °F 76 °F  
Max Temperature 84 °F 83 °F 92 °F (1917)
Min Temperature 77 °F 69 °F 46 °F (1968)
Degree Days  
Heating Degree Days 0 0  
Month to date heating degree days 0 0  
Since 1 July heating degree days 0 0  
Cooling Degree Days 16 11  
Month to date cooling degree days 503 403  
Year to date cooling degree days 4212 3611  
Growing Degree Days 30 (Base 50)    
Moisture  
Dew Point 73 °F    
Average Humidity 77    
Maximum Humidity 85    
Minimum Humidity 69    
Precipitation  
Precipitation T in 0.13 in 2.72 in (1913)
Month to date precipitation 5.40 5.00  
Year to date precipitation 53.39 54.07  
Snow  
Snow 0.00 in - - ()
Month to date snowfall 0.0  
Since 1 July snowfall 0.0  
Since 1 September snowfall 0.0  
Snow Depth 0.00 in    
Sea Level Pressure  
Sea Level Pressure 30.04 in    
Wind  
Wind Speed 11 mph (ESE)    
Max Wind Speed 17 mph    
Max Gust Speed 21 mph    
Visibility 10 miles    
Events      
T = Trace of Precipitation, MM = Missing Value Source: NWS Daily Summary

Daily Weather History Graph

Daily Weather History Graph

Search for Another Location

Airport or City:

Astronomy

Oct. 30, 2019 Rise Set
Actual Time 7:28 AM EDT 6:39 PM EDT
Civil Twilight 7:04 AM EDT 7:03 PM EDT
Nautical Twilight 6:37 AM EDT 7:30 PM EDT
Astronomical Twilight 6:10 AM EDT 7:57 PM EDT
Moon 9:59 AM EDT (10/30) 8:58 PM EDT (10/30)
Length of Visible Light 11h 58m
Length of Day
11h 10m
Waxing Crescent, 8% of the Moon is Illuminated
Oct 30
Waxing Crescent
Nov 4
First Quarter
Nov 12
Full
Nov 19
Last Quarter
Nov 26
New

Hourly Weather History & Observations

Time (EDT) Temp. Heat Index Dew Point Humidity Pressure Visibility Wind Dir Wind Speed Gust Speed Precip Events Conditions
12:53 AM 80.1 °F 84.2 °F 73.0 °F 79% 30.06 in 10.0 mi East 11.5 mph - N/A   Mostly Cloudy
1:53 AM 79.0 °F - 73.0 °F 82% 30.05 in 10.0 mi East 10.4 mph - N/A   Scattered Clouds
2:53 AM 79.0 °F - 73.0 °F 82% 30.03 in 10.0 mi East 10.4 mph - N/A   Scattered Clouds
3:53 AM 78.1 °F - 73.0 °F 84% 30.02 in 10.0 mi East 8.1 mph - 0.00 in   Mostly Cloudy
4:53 AM 78.1 °F - 72.0 °F 81% 30.01 in 10.0 mi East 8.1 mph - N/A   Scattered Clouds
5:53 AM 78.1 °F - 73.0 °F 84% 30.03 in 10.0 mi East 11.5 mph - N/A   Scattered Clouds
6:53 AM 78.1 °F - 73.0 °F 84% 30.04 in 10.0 mi East 13.8 mph - N/A   Scattered Clouds
7:53 AM 78.1 °F - 72.0 °F 81% 30.05 in 10.0 mi East 11.5 mph - N/A   Scattered Clouds
8:53 AM 80.1 °F 84.2 °F 73.0 °F 79% 30.06 in 10.0 mi ESE 13.8 mph - N/A   Scattered Clouds
9:53 AM 82.0 °F 87.4 °F 73.0 °F 74% 30.08 in 10.0 mi East 11.5 mph - N/A   Scattered Clouds
10:53 AM 82.0 °F 87.9 °F 73.9 °F 76% 30.09 in 10.0 mi East 11.5 mph - N/A   Scattered Clouds
11:53 AM 82.9 °F 90.2 °F 75.0 °F 77% 30.08 in 10.0 mi ESE 12.7 mph - N/A   Mostly Cloudy
12:53 PM 82.9 °F 90.2 °F 75.0 °F 77% 30.06 in 10.0 mi SE 12.7 mph - N/A   Mostly Cloudy
1:53 PM 82.9 °F 89.4 °F 73.9 °F 74% 30.03 in 10.0 mi ESE 15.0 mph - N/A   Mostly Cloudy
2:53 PM 82.0 °F 87.4 °F 73.0 °F 74% 30.01 in 10.0 mi ESE 13.8 mph - N/A   Scattered Clouds
3:53 PM 82.9 °F 88.8 °F 73.0 °F 72% 30.01 in 10.0 mi ESE 9.2 mph - N/A   Scattered Clouds
4:53 PM 82.0 °F 86.3 °F 71.1 °F 69% 30.01 in 10.0 mi ESE 10.4 mph - N/A   Scattered Clouds
5:53 PM 81.0 °F 84.9 °F 71.1 °F 72% 30.01 in 10.0 mi East 11.5 mph - N/A   Scattered Clouds
6:53 PM 80.1 °F 83.8 °F 72.0 °F 76% 30.01 in 10.0 mi East 10.4 mph - N/A   Scattered Clouds
7:53 PM 80.1 °F 83.8 °F 72.0 °F 76% 30.02 in 10.0 mi East 8.1 mph - N/A   Scattered Clouds
8:53 PM 80.1 °F 83.8 °F 72.0 °F 76% 30.04 in 10.0 mi East 9.2 mph - N/A   Scattered Clouds
9:53 PM 79.0 °F - 73.9 °F 84% 30.04 in 10.0 mi East 10.4 mph - N/A   Scattered Clouds
10:53 PM 79.0 °F - 73.0 °F 82% 30.05 in 10.0 mi East 9.2 mph - N/A   Scattered Clouds
11:53 PM 79.0 °F - 73.0 °F 82% 30.04 in 10.0 mi East 9.2 mph - N/A   Mostly Cloudy